Location: Gleizolles
(44.4833°N, 6.7667°E)
Time: 06:00:22
(UTC+00:00)

Transit 4A - Pass Details

Date: 29 June 2024
Orbit: 870 x 973 km, 66.8° (Epoch: 14 July)

Event Time Altitude Azimuth Distance (km) Brightness Sun altitude
Rises 23:15:44 0° 291° (WNW) 3,459 11.2 -22.2°
Reaches altitude 10° 23:21:44 10° 338° (NNW) 2,532 11.2 -22.3°
Maximum altitude 23:21:55 10° 340° (NNW) 2,532 11.2 -22.3°
Drops below altitude 10° 23:22:06 10° 342° (NNW) 2,533 11.2 -22.3°
Sets 23:28:12 0° 29° (NNE) 3,497 11.9 -22.3°
